FW9613 Weather Reports


time (UTC)temp
C
wind
direction
speed
KPH
gust
KPH
rain 1hr
cm
rain 24hr
cm
rain mn
cm
humidity
%
barometer
mb
20260510154600 17 27 11.3 29.0 0.00 0.00 0.00 48 1019.3
20260510153048 17 28 14.5 24.1 0.00 0.00 0.00 47 1019.6
20260510151552 16 19 11.3 22.5 0.00 0.00 0.00 48 1019.7
20260510150052 17 337 8.0 20.9 0.00 0.00 0.00 50 1019.7
20260510144550 16 40 9.7 25.7 0.00 0.00 0.00 54 1019.6
20260510143049 16 19 16.1 24.1 0.00 0.00 0.00 55 1019.6
20260510141551 16 61 9.7 19.3 0.00 0.00 0.00 55 1019.2
20260510140055 16 30 9.7 25.7 0.00 0.00 0.00 56 1018.8
20260510134552 16 30 8.0 20.9 0.00 0.00 0.00 58 1018.3
20260510133050 15 28 12.9 24.1 0.00 0.00 0.00 62 1018.5
20260510131552 15 76 11.3 24.1 0.00 0.00 0.00 67 1018.2
20260510130052 15 30 12.9 24.1 0.00 0.00 0.00 70 1017.9
20260510124547 14 58 8.0 24.1 0.00 0.00 0.00 75 1017.7
20260510123048 14 5 8.0 16.1 0.00 0.00 0.00 79 1017.6
20260510121551 14 48 8.0 16.1 0.00 0.00 0.00 82 1017.6
20260510120049 14 19 9.7 17.7 0.00 0.00 0.00 82 1017.1
20260510114554 14 344 8.0 16.1 0.00 0.00 0.00 82 1016.6
20260510113049 14 5 6.4 16.1 0.00 0.00 0.00 82 1016.5
20260510111607 14 36 9.7 17.7 0.00 0.00 0.00 82 1016.2
20260510110051 14 14 9.7 19.3 0.00 0.00 0.00 83 1016.4
20260510104553 14 352 6.4 9.7 0.00 0.00 0.00 84 1016.3
20260510103053 14 17 4.8 8.0 0.00 0.00 0.00 83 1015.9
20260510101552 14 59 1.6 6.4 0.00 0.00 0.00 82 1015.6
20260510100057 15 32 3.2 8.0 0.00 0.00 0.00 82 1015.5
20260510094555 15 344 3.2 8.0 0.00 0.00 0.00 81 1015.2
20260510093109 15 42 1.6 6.4 0.00 0.00 0.00 81 1015.0
20260510091553 15 55 1.6 6.4 0.00 0.00 0.00 80 1014.9
20260510090107 15 73 3.2 8.0 0.00 0.00 0.00 79 1014.8
20260510084554 15 30 3.2 6.4 0.00 0.03 0.00 77 1014.4
20260510083109 16 13 1.6 6.4 0.00 0.03 0.00 75 1014.3
20260510081608 16 13 1.6 6.4 0.00 0.03 0.00 74 1014.2
20260510080055 16 11 4.8 9.7 0.00 0.03 0.00 72 1014.0
20260510074549 16 59 1.6 6.4 0.00 0.03 0.00 71 1013.9
20260510073053 17 28 1.6 8.0 0.00 0.03 0.00 70 1013.9
20260510071552 17 344 3.2 6.4 0.00 0.03 0.00 68 1014.2
20260510070057 17 163 1.6 6.4 0.00 0.03 0.00 66 1013.9
20260510064601 17 0 0.0 0.0 0.00 0.03 0.00 64 1013.7
20260510063052 17 0 0.0 1.6 0.00 0.03 0.00 63 1013.7
20260510061556 17 0 0.0 4.8 0.00 0.03 0.00 63 1013.7
20260510060052 17 0 0.0 6.4 0.00 0.03 0.00 63 1013.5
20260510054552 18 0 0.0 0.0 0.00 0.03 0.00 62 1013.7
20260510053050 18 279 0.0 3.2 0.00 0.03 0.00 60 1013.7
20260510051549 18 0 0.0 4.8 0.00 0.03 0.00 59 1013.7
20260510050056 18 292 1.6 4.8 0.00 0.03 0.00 58 1013.4
20260510044628 19 0 0.0 3.2 0.00 0.03 0.03 57 1013.2
20260510043054 19 295 3.2 11.3 0.00 0.03 0.03 56 1013.4
20260510041548 19 315 6.4 19.3 0.00 0.03 0.03 54 1013.1
20260510040053 20 279 1.6 8.0 0.00 0.03 0.03 53 1012.3
20260510034551 20 179 4.8 9.7 0.00 0.03 0.03 51 1012.2
20260510033051 20 155 3.2 8.0 0.00 0.03 0.03 50 1012.1
20260510031552 20 175 4.8 8.0 0.00 0.03 0.03 49 1012.0
20260510030050 21 165 3.2 8.0 0.00 0.03 0.03 49 1011.9
20260510024549 21 173 3.2 8.0 0.00 0.46 0.03 49 1011.7
20260510023053 21 186 3.2 8.0 0.00 0.46 0.03 47 1011.4
20260510021550 22 155 3.2 8.0 0.00 0.46 0.03 46 1011.1
20260510020051 22 181 3.2 8.0 0.00 0.46 0.03 44 1010.9
20260510014554 23 149 1.6 8.0 0.00 0.46 0.03 43 1010.7
20260510013052 23 166 1.6 9.7 0.00 0.46 0.03 41 1010.3
20260510011556 23 172 3.2 8.0 0.00 0.46 0.03 41 1010.2
20260510010114 24 174 4.8 9.7 0.00 0.46 0.03 41 1010.0
20260510004554 24 180 4.8 8.0 0.00 0.46 0.03 40 1009.9
20260510003051 25 219 4.8 8.0 0.00 0.46 0.03 39 1009.9
20260510001558 25 198 4.8 11.3 0.00 0.46 0.03 38 1009.8
20260510000052 25 225 4.8 11.3 0.00 0.46 0.03 36 1009.9
20260509234611 26 244 6.4 12.9 0.00 0.46 0.03 34 1009.8
20260509233051 26 259 8.0 14.5 0.00 0.46 0.03 33 1009.7
20260509231551 26 252 9.7 16.1 0.00 0.46 0.03 31 1009.7
20260509230051 27 223 8.0 14.5 0.00 0.46 0.03 32 1009.6
20260509224550 26 244 9.7 16.1 0.00 0.46 0.03 31 1009.7
20260509223056 27 235 9.7 19.3 0.00 0.46 0.03 30 1009.7
20260509221551 27 249 8.0 19.3 0.00 0.46 0.03 30 1009.7
20260509214551 27 346 11.3 19.3 0.00 0.46 0.03 30 1009.6
20260509213053 27 228 6.4 14.5 0.00 0.46 0.03 30 1009.6
20260509211556 27 257 4.8 20.9 0.00 0.46 0.03 30 1009.7
20260509210053 27 235 14.5 27.4 0.00 0.46 0.03 30 1009.9
20260509204550 27 245 9.7 19.3 0.00 0.46 0.03 31 1010.0
20260509203124 27 317 6.4 20.9 0.00 0.46 0.03 32 1010.3
20260509201603 27 242 14.5 24.1 0.00 0.46 0.03 30 1010.4
20260509200101 27 238 16.1 25.7 0.00 0.46 0.03 31 1010.5
20260509194549 27 238 12.9 27.4 0.00 0.46 0.03 31 1010.5
20260509193054 27 239 11.3 27.4 0.00 0.46 0.03 31 1010.6
20260509191607 27 269 14.5 22.5 0.00 0.46 0.03 31 1010.4
20260509190047 26 250 12.9 24.1 0.00 0.46 0.03 30 1010.6
20260509184550 26 241 12.9 27.4 0.00 0.46 0.03 33 1010.6
20260509183053 26 236 9.7 25.7 0.00 0.46 0.03 36 1010.7
20260509181558 26 243 9.7 27.4 0.00 0.46 0.03 36 1010.8
20260509180054 26 231 9.7 20.9 0.00 0.46 0.03 38 1010.9
20260509174548 26 248 14.5 27.4 0.00 0.46 0.03 38 1010.9
20260509173059 26 269 8.0 24.1 0.00 0.46 0.03 38 1011.0
20260509171553 25 304 9.7 19.3 0.00 0.46 0.03 40 1011.1
20260509170056 25 250 9.7 29.0 0.00 0.46 0.03 44 1011.3
20260509164601 24 245 14.5 24.1 0.00 0.46 0.03 45 1011.4
20260509163050 23 271 9.7 25.7 0.00 0.46 0.03 45 1011.4
20260509161556 23 254 8.0 20.9 0.00 0.46 0.03 52 1011.3
20260509160055 22 215 4.8 24.1 0.00 0.46 0.03 53 1011.3